Year,Month,Day,Hour,Minute,Value (Times are PST for temperature in C)
2011,09,21,00,00,12.10
2011,09,21,00,01,12.10
2011,09,21,00,02,12.10
2011,09,21,00,03,12.10
2011,09,21,00,04,12.10
2011,09,21,00,05,12.00
2011,09,21,00,06,12.00
2011,09,21,00,07,12.00
2011,09,21,00,08,12.00
2011,09,21,00,09,12.00
2011,09,21,00,10,12.00
2011,09,21,00,11,12.00
2011,09,21,00,12,12.00
2011,09,21,00,13,12.00
2011,09,21,00,14,12.00
2011,09,21,00,15,12.00
2011,09,21,00,16,12.00
2011,09,21,00,17,12.00
2011,09,21,00,18,12.00
2011,09,21,00,19,12.00
2011,09,21,00,20,12.00
2011,09,21,00,21,12.00
2011,09,21,00,22,12.00
2011,09,21,00,23,12.00
2011,09,21,00,24,12.00
2011,09,21,00,25,12.00
2011,09,21,00,26,12.10
2011,09,21,00,27,12.10
2011,09,21,00,28,12.10
2011,09,21,00,29,12.10
2011,09,21,00,30,12.10
2011,09,21,00,31,12.10
2011,09,21,00,32,12.10
2011,09,21,00,33,12.10
2011,09,21,00,34,12.10
2011,09,21,00,35,12.10
2011,09,21,00,36,12.10
2011,09,21,00,37,12.10
2011,09,21,00,38,12.10
2011,09,21,00,39,12.10
2011,09,21,00,40,12.10
2011,09,21,00,41,12.10
2011,09,21,00,42,12.10
2011,09,21,00,43,12.10
2011,09,21,00,44,12.10
2011,09,21,00,45,12.10
2011,09,21,00,46,12.10
2011,09,21,00,47,12.10
2011,09,21,00,48,12.10
2011,09,21,00,49,12.10
2011,09,21,00,50,12.10
2011,09,21,00,51,12.10
2011,09,21,00,52,12.10
2011,09,21,00,53,12.10
2011,09,21,00,54,12.10
2011,09,21,00,55,12.10
2011,09,21,00,56,12.20
2011,09,21,00,57,12.20
2011,09,21,00,58,12.20
2011,09,21,00,59,12.20
2011,09,21,01,00,12.20
2011,09,21,01,01,12.20
2011,09,21,01,02,12.20
2011,09,21,01,03,12.20
2011,09,21,01,04,12.20
2011,09,21,01,05,12.20
2011,09,21,01,06,12.20
2011,09,21,01,07,12.20
2011,09,21,01,08,12.20
2011,09,21,01,09,12.20
2011,09,21,01,10,12.20
2011,09,21,01,11,12.20
2011,09,21,01,12,12.20
2011,09,21,01,13,12.20
2011,09,21,01,14,12.20
2011,09,21,01,15,12.20
2011,09,21,01,16,12.20
2011,09,21,01,17,12.20
2011,09,21,01,18,12.20
2011,09,21,01,19,12.20
2011,09,21,01,20,12.20
2011,09,21,01,21,12.30
2011,09,21,01,22,12.30
2011,09,21,01,23,12.30
2011,09,21,01,24,12.30
2011,09,21,01,25,12.30
2011,09,21,01,26,12.30
2011,09,21,01,27,12.30
2011,09,21,01,28,12.30
2011,09,21,01,29,12.30
2011,09,21,01,30,12.30
2011,09,21,01,31,12.30
2011,09,21,01,32,12.30
2011,09,21,01,33,12.30
2011,09,21,01,34,12.30
2011,09,21,01,35,12.30
2011,09,21,01,36,12.30
2011,09,21,01,37,12.30
2011,09,21,01,38,12.30
2011,09,21,01,39,12.30
2011,09,21,01,40,12.40
2011,09,21,01,41,12.40
2011,09,21,01,42,12.40
2011,09,21,01,43,12.40
2011,09,21,01,44,12.40
2011,09,21,01,45,12.40
2011,09,21,01,46,12.40
2011,09,21,01,47,12.40
2011,09,21,01,48,12.40
2011,09,21,01,49,12.40
2011,09,21,01,50,12.40
2011,09,21,01,51,12.50
2011,09,21,01,52,12.50
2011,09,21,01,53,12.50
2011,09,21,01,54,12.50
2011,09,21,01,55,12.50
2011,09,21,01,56,12.50
2011,09,21,01,57,12.50
2011,09,21,01,58,12.50
2011,09,21,01,59,12.50
2011,09,21,02,00,12.50
2011,09,21,02,01,12.50
2011,09,21,02,02,12.60
2011,09,21,02,03,12.60
2011,09,21,02,04,12.60
2011,09,21,02,05,12.60
2011,09,21,02,06,12.60
2011,09,21,02,07,12.60
2011,09,21,02,08,12.60
2011,09,21,02,09,12.60
2011,09,21,02,10,12.60
2011,09,21,02,11,12.60
2011,09,21,02,12,12.60
2011,09,21,02,13,12.60
2011,09,21,02,14,12.70
2011,09,21,02,15,12.70
2011,09,21,02,16,12.70
2011,09,21,02,17,12.70
2011,09,21,02,18,12.70
2011,09,21,02,19,12.70
2011,09,21,02,20,12.70
2011,09,21,02,21,12.70
2011,09,21,02,22,12.70
2011,09,21,02,23,12.70
2011,09,21,02,24,12.70
2011,09,21,02,25,12.70
2011,09,21,02,26,12.70
2011,09,21,02,27,12.70
2011,09,21,02,28,12.70
2011,09,21,02,29,12.70
2011,09,21,02,30,12.70
2011,09,21,02,31,12.70
2011,09,21,02,32,12.70
2011,09,21,02,33,12.70
2011,09,21,02,34,12.70
2011,09,21,02,35,12.70
2011,09,21,02,36,12.70
2011,09,21,02,37,12.70
2011,09,21,02,38,12.70
2011,09,21,02,39,12.70
2011,09,21,02,40,12.70
2011,09,21,02,41,12.70
2011,09,21,02,42,12.70
2011,09,21,02,43,12.70
2011,09,21,02,44,12.70
2011,09,21,02,45,12.70
2011,09,21,02,46,12.70
2011,09,21,02,47,12.70
2011,09,21,02,48,12.70
2011,09,21,02,49,12.70
2011,09,21,02,50,12.70
2011,09,21,02,51,12.70
2011,09,21,02,52,12.80
2011,09,21,02,53,12.70
2011,09,21,02,54,12.70
2011,09,21,02,55,12.70
2011,09,21,02,56,12.70
2011,09,21,02,57,12.70
2011,09,21,02,58,12.70
2011,09,21,02,59,12.70
2011,09,21,03,00,12.70
2011,09,21,03,01,12.70
2011,09,21,03,02,12.70
2011,09,21,03,03,12.70
2011,09,21,03,04,12.80
2011,09,21,03,05,12.70
2011,09,21,03,06,12.80
2011,09,21,03,07,12.80
2011,09,21,03,08,12.80
2011,09,21,03,09,12.80
2011,09,21,03,10,12.80
2011,09,21,03,11,12.80
2011,09,21,03,12,12.80
2011,09,21,03,13,12.80
2011,09,21,03,14,12.80
2011,09,21,03,15,12.80
2011,09,21,03,16,12.80
2011,09,21,03,17,12.90
2011,09,21,03,18,12.90
2011,09,21,03,19,12.90
2011,09,21,03,20,12.90
2011,09,21,03,21,12.90
2011,09,21,03,22,12.90
2011,09,21,03,23,13.00
2011,09,21,03,24,13.00
2011,09,21,03,25,13.00
2011,09,21,03,26,13.00
2011,09,21,03,27,13.10
2011,09,21,03,28,13.10
2011,09,21,03,29,13.10
2011,09,21,03,30,13.10
2011,09,21,03,31,13.20
2011,09,21,03,32,13.20
2011,09,21,03,33,13.20
2011,09,21,03,34,13.20
2011,09,21,03,35,13.20
2011,09,21,03,36,13.20
2011,09,21,03,37,13.20
2011,09,21,03,38,13.20
2011,09,21,03,39,13.20
2011,09,21,03,40,13.30
2011,09,21,03,41,13.30
2011,09,21,03,42,13.30
2011,09,21,03,43,13.30
2011,09,21,03,44,13.30
2011,09,21,03,45,13.30
2011,09,21,03,46,13.30
2011,09,21,03,47,13.30
2011,09,21,03,48,13.30
2011,09,21,03,49,13.30
2011,09,21,03,50,13.30
2011,09,21,03,51,13.30
2011,09,21,03,52,13.30
2011,09,21,03,53,13.30
2011,09,21,03,54,13.30
2011,09,21,03,55,13.30
2011,09,21,03,56,13.30
2011,09,21,03,57,13.30
2011,09,21,03,58,13.30
2011,09,21,03,59,13.30
2011,09,21,04,00,13.30
2011,09,21,04,01,13.30
2011,09,21,04,02,13.30
2011,09,21,04,03,13.30
2011,09,21,04,04,13.30
2011,09,21,04,05,13.30
2011,09,21,04,06,13.30
2011,09,21,04,07,13.20
2011,09,21,04,08,13.20
2011,09,21,04,09,13.20
2011,09,21,04,10,13.20
2011,09,21,04,11,13.20
2011,09,21,04,12,13.20
2011,09,21,04,13,13.20
2011,09,21,04,14,13.20
2011,09,21,04,15,13.20
2011,09,21,04,16,13.20
2011,09,21,04,17,13.20
2011,09,21,04,18,13.20
2011,09,21,04,19,13.20
2011,09,21,04,20,13.20
2011,09,21,04,21,13.20
2011,09,21,04,22,13.20
2011,09,21,04,23,13.20
2011,09,21,04,24,13.20
2011,09,21,04,25,13.20
2011,09,21,04,26,13.20
2011,09,21,04,27,13.20
2011,09,21,04,28,13.20
2011,09,21,04,29,13.20
2011,09,21,04,30,13.20
2011,09,21,04,31,13.20
2011,09,21,04,32,13.20
2011,09,21,04,33,13.20
2011,09,21,04,34,13.20
2011,09,21,04,35,13.20
2011,09,21,04,36,13.20
2011,09,21,04,37,13.20
2011,09,21,04,38,13.10
2011,09,21,04,39,13.10
2011,09,21,04,40,13.10
2011,09,21,04,41,13.10
2011,09,21,04,42,13.10
2011,09,21,04,43,13.10
2011,09,21,04,44,13.10
2011,09,21,04,45,13.10
2011,09,21,04,46,13.10
2011,09,21,04,47,13.10
2011,09,21,04,48,13.10
2011,09,21,04,49,13.10
2011,09,21,04,50,13.10
2011,09,21,04,51,13.10
2011,09,21,04,52,13.10
2011,09,21,04,53,13.10
2011,09,21,04,54,13.10
2011,09,21,04,55,13.10
2011,09,21,04,56,13.10
2011,09,21,04,57,13.10
2011,09,21,04,58,13.10
2011,09,21,04,59,13.10
2011,09,21,05,00,13.10
2011,09,21,05,01,13.10
2011,09,21,05,02,13.10
2011,09,21,05,03,13.10
2011,09,21,05,04,13.10
2011,09,21,05,05,13.10
2011,09,21,05,06,13.10
2011,09,21,05,07,13.10
2011,09,21,05,08,13.10
2011,09,21,05,09,13.10
2011,09,21,05,10,13.10
2011,09,21,05,11,13.10
2011,09,21,05,12,13.10
2011,09,21,05,13,13.00
2011,09,21,05,14,13.00
2011,09,21,05,15,13.00
2011,09,21,05,16,13.00
2011,09,21,05,17,13.00
2011,09,21,05,18,13.00
2011,09,21,05,19,13.00
2011,09,21,05,20,13.00
2011,09,21,05,21,13.00
2011,09,21,05,22,13.00
2011,09,21,05,23,13.10
2011,09,21,05,24,13.10
2011,09,21,05,25,13.10
2011,09,21,05,26,13.10
2011,09,21,05,27,13.10
2011,09,21,05,28,13.00
2011,09,21,05,29,13.00
2011,09,21,05,30,13.00
2011,09,21,05,31,13.00
2011,09,21,05,32,13.00
2011,09,21,05,33,13.00
2011,09,21,05,34,13.00
2011,09,21,05,35,13.00
2011,09,21,05,36,13.00
2011,09,21,05,37,13.10
2011,09,21,05,38,13.20
2011,09,21,05,39,13.30
2011,09,21,05,40,13.40
2011,09,21,05,41,13.40
2011,09,21,05,42,13.50
2011,09,21,05,43,13.60
2011,09,21,05,44,13.60
2011,09,21,05,45,13.70
2011,09,21,05,46,13.70
2011,09,21,05,47,13.70
2011,09,21,05,48,13.70
2011,09,21,05,49,13.70
2011,09,21,05,50,13.70
2011,09,21,05,51,13.70
2011,09,21,05,52,13.70
2011,09,21,05,53,13.70
2011,09,21,05,54,13.70
2011,09,21,05,55,13.70
2011,09,21,05,56,13.80
2011,09,21,05,57,13.80
2011,09,21,05,58,13.80
2011,09,21,05,59,13.80
2011,09,21,06,00,13.80
2011,09,21,06,01,13.80
2011,09,21,06,02,13.80
2011,09,21,06,03,13.80
2011,09,21,06,04,13.80
2011,09,21,06,05,13.80
2011,09,21,06,06,13.80
2011,09,21,06,07,13.80
2011,09,21,06,08,13.80
2011,09,21,06,09,13.80
2011,09,21,06,10,13.80
2011,09,21,06,11,13.80
2011,09,21,06,12,13.80
2011,09,21,06,13,13.80
2011,09,21,06,14,13.80
2011,09,21,06,15,13.80
2011,09,21,06,16,13.70
2011,09,21,06,17,13.70
2011,09,21,06,18,13.70
2011,09,21,06,19,13.70
2011,09,21,06,20,13.70
2011,09,21,06,21,13.70
2011,09,21,06,22,13.70
2011,09,21,06,23,13.70
2011,09,21,06,24,13.70
2011,09,21,06,25,13.70
2011,09,21,06,26,13.70
2011,09,21,06,27,13.70
2011,09,21,06,28,13.70
2011,09,21,06,29,13.70
2011,09,21,06,30,13.70
2011,09,21,06,31,13.70
2011,09,21,06,32,13.70
2011,09,21,06,33,13.70
2011,09,21,06,34,13.70
2011,09,21,06,35,13.70
2011,09,21,06,36,13.60
2011,09,21,06,37,13.60
2011,09,21,06,38,13.50
2011,09,21,06,39,13.50
2011,09,21,06,40,13.40
2011,09,21,06,41,13.40
2011,09,21,06,42,13.40
2011,09,21,06,43,13.30
2011,09,21,06,44,13.30
2011,09,21,06,45,13.30
2011,09,21,06,46,13.30
2011,09,21,06,47,13.20
2011,09,21,06,48,13.20
2011,09,21,06,49,13.20
2011,09,21,06,50,13.20
2011,09,21,06,51,13.20
2011,09,21,06,52,13.10
2011,09,21,06,53,13.10
2011,09,21,06,54,13.10
2011,09,21,06,55,13.10
2011,09,21,06,56,13.00
2011,09,21,06,57,13.00
2011,09,21,06,58,13.00
2011,09,21,06,59,13.00
2011,09,21,07,00,13.00
2011,09,21,07,01,13.00
2011,09,21,07,02,12.90
2011,09,21,07,03,12.90
2011,09,21,07,04,12.90
2011,09,21,07,05,12.90
2011,09,21,07,06,12.90
2011,09,21,07,07,12.90
2011,09,21,07,08,12.90
2011,09,21,07,09,12.90
2011,09,21,07,10,12.90
2011,09,21,07,11,12.90
2011,09,21,07,12,12.90
2011,09,21,07,13,12.90
2011,09,21,07,14,12.90
2011,09,21,07,15,12.90
2011,09,21,07,16,12.90
2011,09,21,07,17,12.90
2011,09,21,07,18,12.90
2011,09,21,07,19,12.90
2011,09,21,07,20,13.00
2011,09,21,07,21,13.00
2011,09,21,07,22,13.00
2011,09,21,07,23,12.90
2011,09,21,07,24,12.90
2011,09,21,07,25,13.00
2011,09,21,07,26,13.00
2011,09,21,07,27,13.00
2011,09,21,07,28,13.00
2011,09,21,07,29,13.00
2011,09,21,07,30,13.00
2011,09,21,07,31,13.10
2011,09,21,07,32,13.10
2011,09,21,07,33,13.10
2011,09,21,07,34,13.10
2011,09,21,07,35,13.10
2011,09,21,07,36,13.10
2011,09,21,07,37,13.10
2011,09,21,07,38,13.10
2011,09,21,07,39,13.10
2011,09,21,07,40,13.20
2011,09,21,07,41,13.20
2011,09,21,07,42,13.20
2011,09,21,07,43,13.20
2011,09,21,07,44,13.20
2011,09,21,07,45,13.20
2011,09,21,07,46,13.20
2011,09,21,07,47,13.20
2011,09,21,07,48,13.30
2011,09,21,07,49,13.30
2011,09,21,07,50,13.30
2011,09,21,07,51,13.30
2011,09,21,07,52,13.30
2011,09,21,07,53,13.30
2011,09,21,07,54,13.30
2011,09,21,07,55,13.40
2011,09,21,07,56,13.40
2011,09,21,07,57,13.40
2011,09,21,07,58,13.40
2011,09,21,07,59,13.50
2011,09,21,08,00,13.50
2011,09,21,08,01,13.60
2011,09,21,08,02,13.60
2011,09,21,08,03,13.70
2011,09,21,08,04,13.70
2011,09,21,08,05,13.70
2011,09,21,08,06,13.70
2011,09,21,08,07,13.80
2011,09,21,08,08,13.80
2011,09,21,08,09,13.80
2011,09,21,08,10,13.80
2011,09,21,08,11,13.80
2011,09,21,08,12,13.80
2011,09,21,08,13,13.80
2011,09,21,08,14,13.80
2011,09,21,08,15,13.90
2011,09,21,08,16,13.90
2011,09,21,08,17,13.90
2011,09,21,08,18,14.00
2011,09,21,08,19,14.00
2011,09,21,08,20,14.10
2011,09,21,08,21,14.10
2011,09,21,08,22,14.10
2011,09,21,08,23,14.10
2011,09,21,08,24,14.20
2011,09,21,08,25,14.20
2011,09,21,08,26,14.20
2011,09,21,08,27,14.20
2011,09,21,08,28,14.20
2011,09,21,08,29,14.20
2011,09,21,08,30,14.20
2011,09,21,08,31,14.20
2011,09,21,08,32,14.20
2011,09,21,08,33,14.20
2011,09,21,08,34,14.30
2011,09,21,08,35,14.30
2011,09,21,08,36,14.30
2011,09,21,08,37,14.30
2011,09,21,08,38,14.30
2011,09,21,08,39,14.30
2011,09,21,08,40,14.30
2011,09,21,08,41,14.30
2011,09,21,08,42,14.30
2011,09,21,08,43,14.40
2011,09,21,08,44,14.40
2011,09,21,08,45,14.40
2011,09,21,08,46,14.40
2011,09,21,08,47,14.40
2011,09,21,08,48,14.40
2011,09,21,08,49,14.50
2011,09,21,08,50,14.50
2011,09,21,08,51,14.50
2011,09,21,08,52,14.50
2011,09,21,08,53,14.60
2011,09,21,08,54,14.60
2011,09,21,08,55,14.60
2011,09,21,08,56,14.60
2011,09,21,08,57,14.70
2011,09,21,08,58,14.70
2011,09,21,08,59,14.70
2011,09,21,09,00,14.80
2011,09,21,09,01,14.80
2011,09,21,09,02,14.80
2011,09,21,09,03,14.80
2011,09,21,09,04,14.70
2011,09,21,09,05,14.70
2011,09,21,09,06,14.60
2011,09,21,09,07,14.60
2011,09,21,09,08,14.50
2011,09,21,09,09,14.50
2011,09,21,09,10,14.40
2011,09,21,09,11,14.40
2011,09,21,09,12,14.40
2011,09,21,09,13,14.40
2011,09,21,09,14,14.40
2011,09,21,09,15,14.40
2011,09,21,09,16,14.50
2011,09,21,09,17,14.50
2011,09,21,09,18,14.50
2011,09,21,09,19,14.60
2011,09,21,09,20,14.60
2011,09,21,09,21,14.60
2011,09,21,09,22,14.60
2011,09,21,09,23,14.70
2011,09,21,09,24,14.70
2011,09,21,09,25,14.70
2011,09,21,09,26,14.70
2011,09,21,09,27,14.70
2011,09,21,09,28,14.80
2011,09,21,09,29,14.80
2011,09,21,09,30,14.80
2011,09,21,09,31,14.80
2011,09,21,09,32,14.80
2011,09,21,09,33,14.80
2011,09,21,09,34,14.80
2011,09,21,09,35,14.80
2011,09,21,09,36,14.70
2011,09,21,09,37,14.70
2011,09,21,09,38,14.70
2011,09,21,09,39,14.70
2011,09,21,09,40,14.70
2011,09,21,09,41,14.70
2011,09,21,09,42,14.80
2011,09,21,09,43,14.80
2011,09,21,09,44,14.80
2011,09,21,09,45,14.90
2011,09,21,09,46,14.90
2011,09,21,09,47,15.00
2011,09,21,09,48,15.00
2011,09,21,09,49,15.00
2011,09,21,09,50,15.00
2011,09,21,09,51,15.00
2011,09,21,09,52,15.00
2011,09,21,09,53,15.00
2011,09,21,09,54,15.00
2011,09,21,09,55,15.00
2011,09,21,09,56,15.00
2011,09,21,09,57,15.00
2011,09,21,09,58,15.10
2011,09,21,09,59,15.20
2011,09,21,10,00,15.30
2011,09,21,10,01,15.30
2011,09,21,10,02,15.40
2011,09,21,10,03,15.50
2011,09,21,10,04,15.60
2011,09,21,10,05,15.70
2011,09,21,10,06,15.80
2011,09,21,10,07,15.80
2011,09,21,10,08,15.90
2011,09,21,10,09,16.00
2011,09,21,10,10,16.00
2011,09,21,10,11,16.10
2011,09,21,10,12,16.10
2011,09,21,10,13,16.20
2011,09,21,10,14,16.20
2011,09,21,10,15,16.30
2011,09,21,10,16,16.30
2011,09,21,10,17,16.30
2011,09,21,10,18,16.30
2011,09,21,10,19,16.40
2011,09,21,10,20,16.40
2011,09,21,10,21,16.40
2011,09,21,10,22,16.40
2011,09,21,10,23,16.50
2011,09,21,10,24,16.50
2011,09,21,10,25,16.50
2011,09,21,10,26,16.60
2011,09,21,10,27,16.60
2011,09,21,10,28,16.60
2011,09,21,10,29,16.70
2011,09,21,10,30,16.70
2011,09,21,10,31,16.70
2011,09,21,10,32,16.70
2011,09,21,10,33,16.70
2011,09,21,10,34,16.70
2011,09,21,10,35,16.80
2011,09,21,10,36,16.80
2011,09,21,10,37,16.90
2011,09,21,10,38,16.90
2011,09,21,10,39,16.90
2011,09,21,10,40,17.00
2011,09,21,10,41,17.00
2011,09,21,10,42,17.10
2011,09,21,10,43,17.10
2011,09,21,10,44,17.20
2011,09,21,10,45,17.10
2011,09,21,10,46,17.10
2011,09,21,10,47,17.00
2011,09,21,10,48,16.80
2011,09,21,10,49,16.70
2011,09,21,10,50,16.50
2011,09,21,10,51,16.30
2011,09,21,10,52,16.10
2011,09,21,10,53,16.00
2011,09,21,10,54,15.90
2011,09,21,10,55,15.80
2011,09,21,10,56,15.80
2011,09,21,10,57,15.80
2011,09,21,10,58,15.70
2011,09,21,10,59,15.70
2011,09,21,11,00,15.70
2011,09,21,11,01,15.70
2011,09,21,11,02,15.70
2011,09,21,11,03,15.70
2011,09,21,11,04,15.70
2011,09,21,11,05,15.70
2011,09,21,11,06,15.70
2011,09,21,11,07,15.70
2011,09,21,11,08,15.70
2011,09,21,11,09,15.80
2011,09,21,11,10,15.80
2011,09,21,11,11,15.80
2011,09,21,11,12,15.90
2011,09,21,11,13,16.00
2011,09,21,11,14,16.00
2011,09,21,11,15,16.10
2011,09,21,11,16,16.20
2011,09,21,11,17,16.30
2011,09,21,11,18,16.50
2011,09,21,11,19,16.60
2011,09,21,11,20,16.80
2011,09,21,11,21,16.90
2011,09,21,11,22,17.10
2011,09,21,11,23,17.20
2011,09,21,11,24,17.40
2011,09,21,11,25,17.50
2011,09,21,11,26,17.60
2011,09,21,11,27,17.70
2011,09,21,11,28,17.80
2011,09,21,11,29,17.90
2011,09,21,11,30,18.00
2011,09,21,11,31,18.10
2011,09,21,11,32,18.20
2011,09,21,11,33,18.30
2011,09,21,11,34,18.40
2011,09,21,11,35,18.50
2011,09,21,11,36,18.70
2011,09,21,11,37,18.80
2011,09,21,11,38,18.80
2011,09,21,11,39,18.80
2011,09,21,11,40,18.80
2011,09,21,11,41,18.70
2011,09,21,11,42,18.60
2011,09,21,11,43,18.50
2011,09,21,11,44,18.50
2011,09,21,11,45,18.40
2011,09,21,11,46,18.40
2011,09,21,11,47,18.40
2011,09,21,11,48,18.40
2011,09,21,11,49,18.30
2011,09,21,11,50,18.30
2011,09,21,11,51,18.20
2011,09,21,11,52,18.10
2011,09,21,11,53,18.00
2011,09,21,11,54,18.00
2011,09,21,11,55,17.90
2011,09,21,11,56,17.90
2011,09,21,11,57,17.90
2011,09,21,11,58,17.90
2011,09,21,11,59,17.90
2011,09,21,12,00,17.90
2011,09,21,12,01,17.90
2011,09,21,12,02,17.90
2011,09,21,12,03,17.90
2011,09,21,12,04,18.00
2011,09,21,12,05,18.00
2011,09,21,12,06,18.10
2011,09,21,12,07,18.10
2011,09,21,12,08,18.10
2011,09,21,12,09,18.20
2011,09,21,12,10,18.20
2011,09,21,12,11,18.20
2011,09,21,12,12,18.30
2011,09,21,12,13,18.40
2011,09,21,12,14,18.50
2011,09,21,12,15,18.60
2011,09,21,12,16,18.60
2011,09,21,12,17,18.70
2011,09,21,12,18,18.80
2011,09,21,12,19,18.90
2011,09,21,12,20,18.90
2011,09,21,12,21,19.00
2011,09,21,12,22,19.10
2011,09,21,12,23,19.20
2011,09,21,12,24,19.20
2011,09,21,12,25,19.30
2011,09,21,12,26,19.40
2011,09,21,12,27,19.40
2011,09,21,12,28,19.40
2011,09,21,12,29,19.40
2011,09,21,12,30,19.40
2011,09,21,12,31,19.40
2011,09,21,12,32,19.40
2011,09,21,12,33,19.40
2011,09,21,12,34,19.40
2011,09,21,12,35,19.40
2011,09,21,12,36,19.40
2011,09,21,12,37,19.50
2011,09,21,12,38,19.50
2011,09,21,12,39,19.50
2011,09,21,12,40,19.50
2011,09,21,12,41,19.50
2011,09,21,12,42,19.50
2011,09,21,12,43,19.60
2011,09,21,12,44,19.60
2011,09,21,12,45,19.60
2011,09,21,12,46,19.60
2011,09,21,12,47,19.60
2011,09,21,12,48,19.60
2011,09,21,12,49,19.60
2011,09,21,12,50,19.60
2011,09,21,12,51,19.60
2011,09,21,12,52,19.60
2011,09,21,12,53,19.50
2011,09,21,12,54,19.50
2011,09,21,12,55,19.50
2011,09,21,12,56,19.50
2011,09,21,12,57,19.50
2011,09,21,12,58,19.60
2011,09,21,12,59,19.60
2011,09,21,13,00,19.60
2011,09,21,13,01,19.60
2011,09,21,13,02,19.60
2011,09,21,13,03,19.60
2011,09,21,13,04,19.60
2011,09,21,13,05,19.60
2011,09,21,13,06,19.60
2011,09,21,13,07,19.70
2011,09,21,13,08,19.70
2011,09,21,13,09,19.70
2011,09,21,13,10,19.70
2011,09,21,13,11,19.70
2011,09,21,13,12,19.70
2011,09,21,13,13,19.70
2011,09,21,13,14,19.70
2011,09,21,13,15,19.70
2011,09,21,13,16,19.70
2011,09,21,13,17,19.70
2011,09,21,13,18,19.70
2011,09,21,13,19,19.70
2011,09,21,13,20,19.70
2011,09,21,13,21,19.70
2011,09,21,13,22,19.70
2011,09,21,13,23,19.60
2011,09,21,13,24,19.60
2011,09,21,13,25,19.60
2011,09,21,13,26,19.60
2011,09,21,13,27,19.60
2011,09,21,13,28,19.60
2011,09,21,13,29,19.60
2011,09,21,13,30,19.60
2011,09,21,13,31,19.60
2011,09,21,13,32,19.50
2011,09,21,13,33,19.50
2011,09,21,13,34,19.50
2011,09,21,13,35,19.50
2011,09,21,13,36,19.60
2011,09,21,13,37,19.60
2011,09,21,13,38,19.60
2011,09,21,13,39,19.50
2011,09,21,13,40,19.50
2011,09,21,13,41,19.50
2011,09,21,13,42,19.50
2011,09,21,13,43,19.50
2011,09,21,13,44,19.40
2011,09,21,13,45,19.40
2011,09,21,13,46,19.40
2011,09,21,13,47,19.40
2011,09,21,13,48,19.40
2011,09,21,13,49,19.40
2011,09,21,13,50,19.40
2011,09,21,13,51,19.40
2011,09,21,13,52,19.40
2011,09,21,13,53,19.40
2011,09,21,13,54,19.30
2011,09,21,13,55,19.30
2011,09,21,13,56,19.30
2011,09,21,13,57,19.30
2011,09,21,13,58,19.30
2011,09,21,13,59,19.30
2011,09,21,14,00,19.30
2011,09,21,14,01,19.30
2011,09,21,14,02,19.30
2011,09,21,14,03,19.30
2011,09,21,14,04,19.30
2011,09,21,14,05,19.30
2011,09,21,14,06,19.30
2011,09,21,14,07,19.30
2011,09,21,14,08,19.30
2011,09,21,14,09,19.30
2011,09,21,14,10,19.40
2011,09,21,14,11,19.40
2011,09,21,14,12,19.40
2011,09,21,14,13,19.40
2011,09,21,14,14,19.40
2011,09,21,14,15,19.40
2011,09,21,14,16,19.40
2011,09,21,14,17,19.40
2011,09,21,14,18,19.40
2011,09,21,14,19,19.40
2011,09,21,14,20,19.40
2011,09,21,14,21,19.50
2011,09,21,14,22,19.50
2011,09,21,14,23,19.50
2011,09,21,14,24,19.50
2011,09,21,14,25,19.50
2011,09,21,14,26,19.60
2011,09,21,14,27,19.60
2011,09,21,14,28,19.60
2011,09,21,14,29,19.60
2011,09,21,14,30,19.60
2011,09,21,14,31,19.70
2011,09,21,14,32,19.70
2011,09,21,14,33,19.70
2011,09,21,14,34,19.80
2011,09,21,14,35,19.80
2011,09,21,14,36,19.80
2011,09,21,14,37,19.80
2011,09,21,14,38,19.80
2011,09,21,14,39,19.70
2011,09,21,14,40,19.70
2011,09,21,14,41,19.70
2011,09,21,14,42,19.70
2011,09,21,14,43,19.70
2011,09,21,14,44,19.70
2011,09,21,14,45,19.70
2011,09,21,14,46,19.70
2011,09,21,14,47,19.70
2011,09,21,14,48,19.60
2011,09,21,14,49,19.40
2011,09,21,14,50,19.30
2011,09,21,14,51,19.20
2011,09,21,14,52,19.10
2011,09,21,14,53,19.00
2011,09,21,14,54,18.90
2011,09,21,14,55,18.90
2011,09,21,14,56,18.80
2011,09,21,14,57,18.80
2011,09,21,14,58,18.80
2011,09,21,14,59,18.80
2011,09,21,15,00,18.70
2011,09,21,15,01,18.70
2011,09,21,15,02,18.70
2011,09,21,15,03,18.80
2011,09,21,15,04,18.80
2011,09,21,15,05,18.80
2011,09,21,15,06,18.90
2011,09,21,15,07,18.90
2011,09,21,15,08,19.00
2011,09,21,15,09,19.00
2011,09,21,15,10,19.10
2011,09,21,15,11,19.10
2011,09,21,15,12,19.10
2011,09,21,15,13,19.10
2011,09,21,15,14,19.10
2011,09,21,15,15,19.10
2011,09,21,15,16,19.10
2011,09,21,15,17,19.10
2011,09,21,15,18,19.10
2011,09,21,15,19,19.10
2011,09,21,15,20,19.00
2011,09,21,15,21,19.00
2011,09,21,15,22,18.90
2011,09,21,15,23,18.90
2011,09,21,15,24,18.80
2011,09,21,15,25,18.70
2011,09,21,15,26,18.60
2011,09,21,15,27,18.60
2011,09,21,15,28,18.50
2011,09,21,15,29,18.40
2011,09,21,15,30,18.40
2011,09,21,15,31,18.40
2011,09,21,15,32,18.30
2011,09,21,15,33,18.40
2011,09,21,15,34,18.30
2011,09,21,15,35,18.30
2011,09,21,15,36,18.30
2011,09,21,15,37,18.30
2011,09,21,15,38,18.30
2011,09,21,15,39,18.20
2011,09,21,15,40,18.30
2011,09,21,15,41,18.30
2011,09,21,15,42,18.30
2011,09,21,15,43,18.30
2011,09,21,15,44,18.30
2011,09,21,15,45,18.30
2011,09,21,15,46,18.30
2011,09,21,15,47,18.30
2011,09,21,15,48,18.40
2011,09,21,15,49,18.40
2011,09,21,15,50,18.40
2011,09,21,15,51,18.30
2011,09,21,15,52,18.30
2011,09,21,15,53,18.30
2011,09,21,15,54,18.30
2011,09,21,15,55,18.30
2011,09,21,15,56,18.30
2011,09,21,15,57,18.30
2011,09,21,15,58,18.30
2011,09,21,15,59,18.30
2011,09,21,16,00,18.30
2011,09,21,16,01,18.20
2011,09,21,16,02,18.20
2011,09,21,16,03,18.10
2011,09,21,16,04,18.10
2011,09,21,16,05,18.10
2011,09,21,16,06,18.10
2011,09,21,16,07,18.00
2011,09,21,16,08,18.00
2011,09,21,16,09,17.90
2011,09,21,16,10,17.90
2011,09,21,16,11,17.80
2011,09,21,16,12,17.80
2011,09,21,16,13,17.70
2011,09,21,16,14,17.70
2011,09,21,16,15,17.70
2011,09,21,16,16,17.60
2011,09,21,16,17,17.60
2011,09,21,16,18,17.60
2011,09,21,16,19,17.60
2011,09,21,16,20,17.60
2011,09,21,16,21,17.50
2011,09,21,16,22,17.50
2011,09,21,16,23,17.50
2011,09,21,16,24,17.50
2011,09,21,16,25,17.50
2011,09,21,16,26,17.50
2011,09,21,16,27,17.40
2011,09,21,16,28,17.40
2011,09,21,16,29,17.40
2011,09,21,16,30,17.40
2011,09,21,16,31,17.40
2011,09,21,16,32,17.40
2011,09,21,16,33,17.40
2011,09,21,16,34,17.40
2011,09,21,16,35,17.40
2011,09,21,16,36,17.30
2011,09,21,16,37,17.30
2011,09,21,16,38,17.30
2011,09,21,16,39,17.20
2011,09,21,16,40,17.20
2011,09,21,16,41,17.10
2011,09,21,16,42,17.10
2011,09,21,16,43,17.10
2011,09,21,16,44,17.10
2011,09,21,16,45,17.00
2011,09,21,16,46,17.00
2011,09,21,16,47,16.90
2011,09,21,16,48,16.90
2011,09,21,16,49,16.90
2011,09,21,16,50,16.90
2011,09,21,16,51,16.90
2011,09,21,16,52,16.80
2011,09,21,16,53,16.80
2011,09,21,16,54,16.80
2011,09,21,16,55,16.80
2011,09,21,16,56,16.80
2011,09,21,16,57,16.70
2011,09,21,16,58,16.70
2011,09,21,16,59,16.70
2011,09,21,17,00,16.70
2011,09,21,17,01,16.60
2011,09,21,17,02,16.60
2011,09,21,17,03,16.60
2011,09,21,17,04,16.60
2011,09,21,17,05,16.60
2011,09,21,17,06,16.60
2011,09,21,17,07,16.60
2011,09,21,17,08,16.60
2011,09,21,17,09,16.70
2011,09,21,17,10,16.70
2011,09,21,17,11,16.70
2011,09,21,17,12,16.70
2011,09,21,17,13,16.70
2011,09,21,17,14,16.70
2011,09,21,17,15,16.70
2011,09,21,17,16,16.70
2011,09,21,17,17,16.70
2011,09,21,17,18,16.70
2011,09,21,17,19,16.70